Simultaneous Nadir Overpasses (SNOs) Predictions

Prediction of SNOs between AURA and NPP Satellite Orbit:

Table of predicted SNOs for the next 14.0 days since TLE Epoch: 7/1/2013
Index Date (AURA) Time (AURA) Lat,Lon (AURA) SZA (AURA ) Date (NPP) Time (NPP) Lat,Lon (NPP) SZA (NPP ) Distance(km) Time Diff (sec)
1 07/03/2013 11:25:26 -79.17, 83.24 109.46 07/03/2013 11:24:23 -79.16, 83.12 109.39 2.87 63
2 07/03/2013 12:14:43 79.50,-106.97 70.07 07/03/2013 12:14:57 79.50,-106.91 70.05 1.14 14
3 07/06/2013 03:41:47 -79.31,-159.97 109.40 07/06/2013 03:41:13 -79.31,-159.96 109.38 0.21 34
4 07/06/2013 04:31:07 79.52, 9.07 70.30 07/06/2013 04:31:51 79.51, 8.97 70.29 2.14 44
5 07/08/2013 19:58:10 -79.36, -43.76 109.16 07/08/2013 19:58:06 -79.36, -43.83 109.15 1.35 4
6 07/08/2013
